TimeCST,TemperatureF,Dew PointF,Humidity,Sea Level PressureIn,VisibilityMPH,Wind Direction,Wind SpeedMPH,Gust SpeedMPH,PrecipitationIn,Events,Conditions,WindDirDegrees,DateUTC
12:15 AM,32.5,30.0,90,29.88,4.0,South,10.4,-,N/A,,Overcast,180,2014-01-10 06:15:00
12:35 AM,32.9,30.2,90,29.86,5.0,South,8.1,-,N/A,,Overcast,170,2014-01-10 06:35:00
12:55 AM,32.9,30.4,90,29.85,4.0,South,8.1,-,N/A,,Overcast,180,2014-01-10 06:55:00
1:15 AM,32.9,30.9,92,29.84,2.5,South,10.4,-,N/A,,Overcast,180,2014-01-10 07:15:00
1:35 AM,32.9,31.1,93,29.83,2.5,South,8.1,-,N/A,,Overcast,170,2014-01-10 07:35:00
1:55 AM,33.1,31.1,92,29.82,2.0,South,8.1,-,N/A,,Overcast,180,2014-01-10 07:55:00
2:15 AM,33.1,31.3,93,29.81,2.5,South,8.1,-,N/A,,Overcast,180,2014-01-10 08:15:00
2:35 AM,33.3,31.6,94,29.81,2.5,South,11.5,-,N/A,,Overcast,190,2014-01-10 08:35:00
2:55 AM,33.3,31.6,94,29.79,4.0,South,11.5,-,N/A,,Overcast,180,2014-01-10 08:55:00
3:15 AM,33.4,31.5,92,29.78,5.0,South,11.5,17.3,N/A,,Overcast,190,2014-01-10 09:15:00
3:35 AM,33.4,31.1,91,29.77,4.0,South,10.4,-,N/A,,Overcast,190,2014-01-10 09:35:00
3:55 AM,33.4,31.1,91,29.76,4.0,South,6.9,-,N/A,,Overcast,190,2014-01-10 09:55:00
4:15 AM,33.4,31.5,92,29.75,4.0,South,8.1,-,N/A,,Overcast,180,2014-01-10 10:15:00
4:35 AM,33.4,31.6,93,29.74,3.0,South,6.9,-,N/A,,Overcast,180,2014-01-10 10:35:00
4:55 AM,33.4,31.6,93,29.73,3.0,South,5.8,-,N/A,,Overcast,180,2014-01-10 10:55:00
5:15 AM,33.8,31.8,92,29.73,3.0,SSW,9.2,-,N/A,,Overcast,200,2014-01-10 11:15:00
5:35 AM,33.8,31.8,92,29.70,3.0,South,5.8,-,N/A,,Overcast,180,2014-01-10 11:35:00
5:55 AM,33.8,31.8,92,29.69,3.0,Calm,Calm,-,N/A,,Overcast,0,2014-01-10 11:55:00
6:15 AM,33.6,31.8,93,29.69,2.5,Calm,Calm,-,N/A,,Overcast,0,2014-01-10 12:15:00
6:35 AM,33.3,31.8,94,29.68,2.0,Calm,Calm,-,N/A,,Overcast,0,2014-01-10 12:35:00
6:55 AM,33.4,32.0,94,29.68,1.2,Calm,Calm,-,N/A,,Overcast,0,2014-01-10 12:55:00
7:15 AM,33.4,32.0,94,29.66,1.0,ESE,3.5,-,N/A,,Overcast,110,2014-01-10 13:15:00
7:35 AM,33.6,32.0,94,29.66,1.0,Calm,Calm,-,N/A,,Overcast,0,2014-01-10 13:35:00
7:55 AM,33.8,32.0,93,29.68,1.0,Calm,Calm,-,N/A,,Overcast,0,2014-01-10 13:55:00
8:15 AM,33.8,32.0,93,29.69,1.5,South,4.6,-,N/A,,Overcast,170,2014-01-10 14:15:00
8:35 AM,33.8,32.0,93,29.68,0.8,Calm,Calm,-,N/A,,Overcast,0,2014-01-10 14:35:00
8:55 AM,33.8,32.0,93,29.67,0.8,Calm,Calm,-,N/A,,Overcast,0,2014-01-10 14:55:00
9:15 AM,33.8,32.2,94,29.67,1.0,Calm,Calm,-,N/A,,Overcast,0,2014-01-10 15:15:00
9:35 AM,34.0,32.4,94,29.66,0.8,Calm,Calm,-,N/A,,Overcast,0,2014-01-10 15:35:00
9:55 AM,34.2,32.5,94,29.66,1.2,Calm,Calm,-,N/A,,Overcast,0,2014-01-10 15:55:00
10:15 AM,34.3,32.9,94,29.64,1.5,Calm,Calm,-,N/A,,Overcast,0,2014-01-10 16:15:00
10:35 AM,34.7,33.1,94,29.63,3.0,Calm,Calm,-,N/A,,Overcast,0,2014-01-10 16:35:00
10:55 AM,35.1,33.3,93,29.62,5.0,Calm,Calm,-,N/A,,Overcast,0,2014-01-10 16:55:00
11:15 AM,35.2,33.4,93,29.60,7.0,Calm,Calm,-,N/A,,Overcast,0,2014-01-10 17:15:00
11:35 AM,36.0,33.8,92,29.58,10.0,Calm,Calm,-,N/A,,Overcast,0,2014-01-10 17:35:00
11:55 AM,36.0,32.9,89,29.57,10.0,Calm,Calm,-,N/A,,Overcast,0,2014-01-10 17:55:00
12:15 PM,36.1,32.9,88,29.58,10.0,Calm,Calm,-,N/A,,Overcast,0,2014-01-10 18:15:00
12:35 PM,36.5,32.9,87,29.57,10.0,WSW,3.5,-,N/A,,Overcast,250,2014-01-10 18:35:00
12:55 PM,36.7,32.9,86,29.56,10.0,WSW,4.6,-,N/A,,Overcast,250,2014-01-10 18:55:00
1:15 PM,36.7,32.9,86,29.55,10.0,Calm,Calm,-,N/A,,Overcast,0,2014-01-10 19:15:00
1:35 PM,37.0,32.9,85,29.55,10.0,Calm,Calm,-,N/A,,Overcast,0,2014-01-10 19:35:00
1:55 PM,37.0,33.1,86,29.55,10.0,Calm,Calm,-,N/A,,Overcast,0,2014-01-10 19:55:00
2:15 PM,37.0,33.3,86,29.54,10.0,Calm,Calm,-,N/A,,Overcast,0,2014-01-10 20:15:00
2:35 PM,37.4,33.6,86,29.54,10.0,West,4.6,-,N/A,,Overcast,270,2014-01-10 20:35:00
2:55 PM,37.9,33.8,85,29.54,10.0,West,5.8,-,N/A,,Overcast,270,2014-01-10 20:55:00
3:15 PM,37.8,32.9,83,29.54,7.0,West,4.6,-,N/A,Rain,Light Rain,280,2014-01-10 21:15:00
3:35 PM,37.6,33.3,84,29.54,7.0,West,5.8,-,N/A,,Overcast,270,2014-01-10 21:35:00
3:55 PM,36.7,32.9,86,29.55,5.0,WNW,8.1,-,N/A,Rain,Light Rain,290,2014-01-10 21:55:00
4:15 PM,35.6,32.7,89,29.55,2.5,WNW,4.6,-,N/A,Rain,Light Rain,290,2014-01-10 22:15:00
4:35 PM,34.9,32.4,91,29.56,2.0,West,3.5,-,N/A,Snow,Light Snow,280,2014-01-10 22:35:00
4:55 PM,34.3,32.2,92,29.56,1.2,West,3.5,-,0.01,Snow,Light Snow,280,2014-01-10 22:55:00
5:15 PM,34.2,32.2,92,29.57,1.2,West,3.5,-,N/A,Snow,Light Snow,270,2014-01-10 23:15:00
5:35 PM,34.2,32.2,92,29.56,2.5,Calm,Calm,-,N/A,Snow,Light Snow,0,2014-01-10 23:35:00
5:55 PM,34.3,32.4,92,29.57,3.0,West,3.5,-,N/A,,Overcast,260,2014-01-10 23:55:00
6:15 PM,34.3,32.5,93,29.57,3.0,WSW,3.5,-,N/A,,Overcast,250,2014-01-11 00:15:00
6:35 PM,34.5,32.7,93,29.58,3.0,West,4.6,-,N/A,,Overcast,260,2014-01-11 00:35:00
6:55 PM,34.7,32.7,92,29.59,3.0,Calm,Calm,-,N/A,,Overcast,0,2014-01-11 00:55:00
7:15 PM,34.7,32.5,92,29.60,3.0,Calm,Calm,-,N/A,,Overcast,0,2014-01-11 01:15:00
7:35 PM,34.7,32.5,92,29.61,4.0,West,3.5,-,N/A,,Overcast,280,2014-01-11 01:35:00
7:55 PM,34.7,32.9,93,29.61,4.0,West,3.5,-,N/A,,Overcast,270,2014-01-11 01:55:00
8:15 PM,34.7,32.7,92,29.62,4.0,West,4.6,-,N/A,,Overcast,270,2014-01-11 02:15:00
8:35 PM,34.9,32.5,91,29.63,5.0,West,3.5,-,N/A,,Overcast,280,2014-01-11 02:35:00
8:55 PM,34.3,32.0,91,29.63,5.0,West,3.5,-,N/A,,Mostly Cloudy,280,2014-01-11 02:55:00
9:15 PM,34.5,32.0,90,29.64,7.0,West,4.6,-,N/A,,Mostly Cloudy,270,2014-01-11 03:15:00
9:35 PM,35.1,31.3,86,29.64,10.0,WNW,5.8,-,N/A,,Scattered Clouds,290,2014-01-11 03:35:00
9:55 PM,34.9,30.9,85,29.65,10.0,WNW,4.6,-,N/A,,Clear,290,2014-01-11 03:55:00
10:15 PM,35.1,30.7,84,29.66,10.0,WNW,4.6,-,N/A,,Clear,290,2014-01-11 04:15:00
10:35 PM,34.7,30.4,84,29.66,10.0,WNW,4.6,-,N/A,,Scattered Clouds,290,2014-01-11 04:35:00
10:55 PM,33.8,29.8,85,29.66,10.0,West,4.6,-,N/A,,Clear,280,2014-01-11 04:55:00
11:15 PM,33.4,29.3,85,29.67,10.0,WNW,6.9,-,N/A,,Clear,300,2014-01-11 05:15:00
11:35 PM,33.3,28.6,83,29.68,10.0,NW,6.9,-,N/A,,Clear,310,2014-01-11 05:35:00
11:55 PM,32.4,28.2,85,29.68,10.0,WNW,4.6,-,N/A,,Clear,300,2014-01-11 05:55:00